Regional Weather Roundup
Issued by NWS Cleveland, OH

Home | Current Version | Previous Version | Graphics & Text | Print | Product List | Glossary On
Versions: 1 2 3 4 5 6 7 8 9 10 11 12 13 14 15 16 17 18 19 20 21 22 23 24 25 26 27 28 29 30 31 32 33 34 35 36 37 38 39 40 41 42 43 44 45 46 47 48 49 50
000
ASUS41 KCLE 281710
RWRCLE
OHIO REGIONAL WEATHER ROUNDUP
NATIONAL WEATHER SERVICE WILMINGTON, OH
100 PM EDT FRI AUG 28 2015

NOTE: "FAIR" INDICATES FEW OR NO CLOUDS BELOW 12,000 FEET WITH NO
SIGNIFICANT WEATHER AND/OR OBSTRUCTIONS TO VISIBILITY.

OHZ001>008-015>018-024>027-034-035-043-044-281800-
   NORTHWEST OHIO

CITY           SKY/WX    TMP DP  RH WIND       PRES   REMARKS
DEFIANCE       MOSUNNY   76  57  51 VRB6      30.20F
FINDLAY        MOSUNNY   75  56  51 S5        30.20F
TOLEDO EXPRESS MOSUNNY   74  58  57 CALM      30.20F
TOLEDO EXEC    PTSUNNY   75  54  47 W3        30.21F
LIMA           SUNNY     74  56  53 W5        30.21S
$$

OHZ009>014-019>023-028>033-038-089-281800-
   NORTHEAST OHIO

CITY           SKY/WX    TMP DP  RH WIND       PRES   REMARKS
CLE-HOPKINS    MOSUNNY   74  56  53 SW6       30.22F
CLE-LAKEFRONT  SUNNY     74  57  55 N8        30.20F
CUY CO. ARPT   MOSUNNY   75  59  57 NW7       30.22S
LORAIN-ELYRIA  SUNNY     73  56  54 VRB3      30.21F
ASHTABULA      MOSUNNY   69  55  60 VRB3      30.23F
AKRON-CANTON   MOSUNNY   74  51  44 CALM      30.22F
WOOSTER        PTSUNNY   76  52  43 VRB5      30.22F
MANSFIELD      MOSUNNY   73  53  49 CALM      30.22S
YOUNGSTOWN     PTSUNNY   73  55  53 S6        30.23F
$$

OHZ042-051>053-060>062-070>072-077>081-281800-
  SOUTHWEST OHIO

CITY           SKY/WX    TMP DP  RH WIND       PRES   REMARKS
CINC-COVINGTON MOSUNNY   76  54  46 E3        30.19F
CINC-LUNKEN    SUNNY     76  57  51 NE8       30.19F
HAMILTON       SUNNY     77  56  48 SE3       30.20F
DAYTON         MOSUNNY   75  55  49 CALM      30.22F
WRIGHT-PAT AFB MOSUNNY   75  57  52 VRB6      30.20F
DAYTON GENERAL SUNNY     74  55  51 VRB6      30.20F
WILMINGTON     SUNNY     73  55  53 E6        30.21F
$$

OHZ036-037-039>041-045>050-054>059-063>069-073>076-082>088-281800-
  CENTRAL AND SOUTHEAST OHIO

CITY           SKY/WX    TMP DP  RH WIND       PRES   REMARKS
COLUMBUS       MOSUNNY   75  54  47 CALM      30.20F
OSU AIRPORT    PTSUNNY   74  54  49 NW5       30.20F
BOLTON FIELD   MOSUNNY   75  55  50 CALM      30.21F
RICKENBACK AFB MOSUNNY   75  56  51 SE5       30.20F
NEWARK         SUNNY     76  56  49 CALM      30.20F
MARION         CLOUDY    73  54  51 CALM      30.21F
LANCASTER      MOSUNNY   75  55  49 E7        30.21F
ZANESVILLE     MOSUNNY   77  52  41 NE6       30.20F
NEW PHILLY     MOSUNNY   76  51  41 VRB5      30.21F
$$


USA.gov is the U.S. government's official web portal to all federal, state and local government web resources and services.